Regional Weather Roundup
Issued by NWS

Home | Current Version | Previous Version | Graphics & Text | Print | Product List | Glossary On
Versions: 1 2 3 4 5 6 7 8 9 10 11 12 13 14 15 16 17 18 19 20 21 22 23 24 25 26 27 28 29 30 31 32 33 34 35 36 37 38 39 40 41 42 43 44 45 46 47 48 49 50
000
ASUS43 KMPX 261101
RWRMN
WEATHER ROUNDUP FOR MINNESOTA
NATIONAL WEATHER SERVICE TWIN CITIES/CHANHASSEN MN
600 AM CDT SAT JUL 26 2014


NOTE: "FAIR" INDICATES FEW OR NO CLOUDS BELOW 12,000 FEET WITH NO
SIGNIFICANT WEATHER AND/OR OBSTRUCTIONS TO VISIBILITY. N/A MEANS
CURRENT SKY AND/OR WEATHER CONDITIONS ARE NOT AVAILABLE.

MNZ060>063-068>070-261200-
   Twin Cities Metro

CITY           SKY/WX    TMP DP  RH WIND       PRES   REMARKS
TWIN CITIES    MOCLDY    72  69  90 CALM      29.80R
ST PAUL        PTCLDY    70  69  97 CALM      29.80R
CRYSTAL        PTCLDY    70  67  90 CALM      29.79R FOG
BLAINE         CLEAR     70  70 100 CALM      29.81R FOG
LAKEVILLE      MOCLDY    66  66 100 CALM      29.81R FOG
EDEN PRAIRIE   MOCLDY    70  69  97 CALM      29.79S FOG
SOUTH ST PAUL  PTCLDY    71  68  92 CALM      29.80S
LAKE ELMO      FAIR      70  70 100 CALM      29.82R FOG
$$
MNZ001>005-007-008-013>017-022>024-027-028-261200-
   Northwest Minnesota

CITY           SKY/WX    TMP DP  RH WIND       PRES   REMARKS
BEMIDJI        CLEAR     55  53  91 CALM      29.79S
HALLOCK        CLEAR     55  54  94 SE6       29.72S
ROSEAU         CLEAR     54  48  82 CALM      29.75S
WARROAD        CLEAR     55  52  88 CALM      29.75S
THIEF RVR FALL CLEAR     55  52  88 S8        29.77S
CROOKSTON      CLEAR     55  54  94 SE8       29.77S
FOSSTON        CLEAR     52  52 100 S8        29.80R
DETROIT LAKES  CLEAR     61  55  82 SW5       29.83S
MOORHEAD       CLEAR     57  57 100 SE6       29.80S
PARK RAPIDS    CLEAR     57  53  86 CALM      29.81S
$$
MNZ006-009>011-018-025>026-261200-
   North Central Minnesota

CITY           SKY/WX    TMP DP  RH WIND       PRES   REMARKS
BAUDETTE       CLEAR     55  52  89 CALM      29.76S
FLAG ISLAND    CLEAR     63  54  72 W9        29.73R
INTL FALLS     CLEAR     56  54  93 W5        29.75R
WASKISH        CLEAR     66  57  72 W6        29.77S
BIG FORK       CLEAR     55  54  94 CALM      29.79R
LONGVILLE      CLEAR     54  54 100 CALM      29.81R FOG
GRAND RAPIDS   CLEAR     61  55  82 CALM      29.80R
CRANE LAKE     CLEAR     52  52 100 CALM      29.76R
ORR            CLEAR     59  55  88 CALM      29.74S
COOK           CLEAR     57  57 100 CALM      29.77S
$$
MNZ012-019>021-037-261200-
   Northeast Minnesota

CITY           SKY/WX    TMP DP  RH WIND       PRES   REMARKS
DULUTH         CLEAR     65  62  90 W7        29.77S
ELY            CLEAR     61  59  94 SW5       29.75S FOG
HIBBING        CLEAR     54  52  93 CALM      29.78R
EVELETH        CLEAR     59  59 100 W3        29.79R FOG
DULUTH HARBOR  CLEAR     70  66  88 SW6       29.75S
TWO HARBORS    CLEAR     64  61  88 CALM      29.73R
SILVER BAY     CLEAR     64  64 100 CALM      29.71S
GRAND MARAIS     N/A     56  54  93 CALM      29.70S
G MARAIS ARPRT CLOUDY    64  61  88 W3        29.74S FOG
$$
MNZ029>031-032-039>041-046>048-054>057-064-261200-
   West Central Minnesota

CITY           SKY/WX    TMP DP  RH WIND       PRES   REMARKS
FERGUS FALLS   CLEAR     59  55  88 E6        29.81F
WHEATON        MOCLDY    55  55 100 S2        29.83R VSB 1
MORRIS         PTCLDY    57  57 100 NE3       29.81R
ALEXANDRIA     CLEAR     60  59  96 N6        29.83F
ELBOW LAKE     FAIR      62  60  94 NE6       29.80F
WADENA         CLEAR     55  55 100 CALM      29.83R
GLENWOOD       MOCLDY    59  57  94 N5        29.83S FOG
APPLETON       MOCLDY    63  61  94 N3        29.81R
BENSON           N/A     59  59 100 CALM      29.81R FOG
ORTONVILLE     MOCLDY    64  63  94 CALM      29.80F FOG
MADISON        CLOUDY    64  64 100 S8        29.81F FOG
WILLMAR        LGT RAIN  63  61  94 CALM      29.83S VSB 1/4
$$
MNZ033>034-036-042>043-049>051-058-059-261200-
   Central Minnesota

CITY           SKY/WX    TMP DP  RH WIND       PRES   REMARKS
ST CLOUD       FOG       61  59  94 W6        29.82R VSB 1/2
SAUK CENTRE    FAIR      60  60  99 NE6       29.82F
PAYNESVILLE    PTCLDY    58  58 100 SW3       29.82S FOG
AITKIN         HAZE      63  55  77 SW5       29.81R VSB 1/2
PINE RIVER     CLEAR     55  55 100 CALM      29.86R
BRAINERD       CLEAR     57  57 100 S3        29.84R FOG
STAPLES        CLEAR     55  55 100 SW3       29.83S
LONG PRAIRIE   FAIR      57  55  94 CALM      29.84F
LITTLE FALLS   FOG       55  54  94 CALM      29.83S VSB 1/4
LITCHFIELD       N/A     66  66 100 CALM      29.83R FOG
BUFFALO        PTCLDY    66  64  93 CALM      29.82R FOG
MAPLE LAKE     PTCLDY    65  65  97 N5        29.82R
$$
MNZ037-044-045-052-053-261200-
   East Central Minnesota

CITY           SKY/WX    TMP DP  RH WIND       PRES   REMARKS
PRINCETON        N/A     63  61  94 W3        29.82R FOG
MORA           FOG       63  61  94 CALM      29.84R VSB 1/4
CAMBRIDGE      CLEAR     68  61  77 NW3       29.79R HAZE
RUSH CITY      PTCLDY    65  64  96 CALM      29.81R
MOOSE LAKE     CLEAR     63  63 100 W5        29.78R
HINCKLEY       FOG       64  64 100 W3        29.80R VSB<1/4
CLOQUET        CLEAR     63  61  94 W8        29.79R
MCGREGOR       CLEAR     61  59  94 CALM      29.81R
$$
MNZ071>073-080-081-089-090-097-098-261200-
   Southwest Minnesota

CITY           SKY/WX    TMP DP  RH WIND       PRES   REMARKS
MONTEVIDEO     CLOUDY    64  64 100 W5        29.84R FOG
GRANITE FALLS  CLOUDY    64  64 100 SW5       29.85R FOG
CANBY          CLOUDY    67  65  94 CALM      29.85R
MARSHALL       CLOUDY    66  64  94 S3        29.82F
REDWOOD FALLS  CLOUDY    68  67  96 SW5       29.83R FOG
OLIVIA         CLOUDY    64  63  94 CALM      29.81F FOG
PIPESTONE      CLOUDY    70  66  88 E6        29.85R
WINDOM         CLOUDY    68  66  94 NW5       29.87R FOG
WORTHINGTON    CLOUDY    70  66  88 NE7       29.84F
JACKSON        MOCLDY    70  66  88 NW3       29.87R FOG
TRACY          LGT RAIN  69  67  96 N5        29.84F
SLAYTON        CLOUDY    67  67 100 CALM      29.82F
$$
MNZ065>067-074>077-082>085-091>093-261200-
   South Central Minnesota

CITY           SKY/WX    TMP DP  RH WIND       PRES   REMARKS
MANKATO        PTCLDY    70  64  83 W3        29.83R
NEW ULM        MOCLDY    68  68 100 CALM      29.83R FOG
ST JAMES       MOCLDY    70  68  94 CALM      29.85S FOG
FAIRMONT       PTCLDY    68  64  88 CALM      29.83F
GLENCOE        MOCLDY    67  64  89 CALM      29.81R FOG
FARIBAULT      PTCLDY    72  66  83 CALM      29.82S HAZE
OWATONNA       MOCLDY    72  68  88 S5        29.83S FOG
WASECA         CLOUDY    68  64  88 CALM      29.84S FOG
ALBERT LEA     MOCLDY    72  70  94 CALM      29.84S FOG
$$
MNZ078>079-086>088-094>096-261200-
   Southeast Minnesota

CITY           SKY/WX    TMP DP  RH WIND       PRES   REMARKS
ROCHESTER      FOG       69  67  93 S5        29.85R VSB 1/2
RED WING       CLOUDY    72  70  94 CALM      29.80R
STANTON        MOCLDY    70  67  90 S3        29.80S FOG
DODGE CENTER   FOG       70  70 100 SW6       29.84S VSB 1
WINONA         CLOUDY    70  64  83 CALM      29.82S
AUSTIN         FOG       70  70 100 S6        29.85R VSB 1/2
PRESTON        CLOUDY    65  66 100 SW3       29.86R FOG
$$
ABBREVIATIONS USED IN REMARKS
   TC - TEMPERATURES IN CELSIUS
  WCI - WIND CHILL INDEX
   HX - HEAT INDEX
  VSB - VISIBILITY
$$



USA.gov is the U.S. government's official web portal to all federal, state and local government web resources and services.